[[{"header":{"parameterUnit":"m.s-1","parameterCategory":1,"la1":30.2991,"la2":30.254,"lo1":-89.0895,"lo2":-89.0444,"dy":0.0017,"dx":0.0017,"nx":28,"ny":28,"refTime":"2025-07-27T09:00:00:Z","depth":0,"parameterNumber":2,"parameterNumberName":"U-component_of_WINDS"},"data":[0,0,0,0,0,0,0,0,0,0,0,0,0,0,0,0,0,0,0,0,0,0,0,0,0,0,0,0,0,0,0,0,0,0,0,0,0,0,0,0,0,0,0,0,0,0,0,0,0,0,0,0,0,0,0,0,0,0,1.1623,1.1623,0,1.16,1.16,1.16,1.1564,1.1563,1.1563,1.1562,1.1538,1.1538,1.1538,0,0,0,0,0,0,0,0,0,0,0,0,0,1.1637,1.1637,1.1623,1.1623,1.1623,1.16,1.16,1.16,1.1564,1.1563,1.1562,1.1562,1.1538,1.1538,1.1538,0,0,0,0,0,0,0,0,0,0,0,0,0,1.1624,1.1637,1.1623,1.1602,1.16,1.16,1.16,1.1599,1.1564,1.1563,1.1562,1.1561,1.1538,1.1538,1.1538,1.1557,0,0,1.1538,1.1538,0,0,0,0,0,0,0,0,1.1625,1.1624,1.1605,1.1604,1.1601,1.1584,1.1596,1.1585,1.1564,1.1578,1.1562,1.1561,1.1554,1.1553,1.155,1.1556,1.1555,1.1538,1.1538,1.1538,1.1538,0,0,0,0,0,0,0,1.1626,1.1624,1.1614,1.1605,1.1603,1.1594,1.1591,1.1594,1.1572,1.1576,1.1574,1.1572,1.1553,1.1551,1.155,1.1554,1.1538,1.1538,1.1538,1.1538,1.1576,1.1577,0,0,0,0,0,0,1.163,1.1625,1.1615,1.1613,1.1611,1.1595,1.1591,1.159,1.1571,1.1568,1.1572,1.157,1.1551,1.155,1.1549,1.1571,1.1538,1.1538,1.1538,1.1575,1.1576,1.1577,0,0,0,0,0,0,1.163,1.1629,1.1616,1.1619,1.1616,1.1595,1.1595,1.159,1.1588,1.1568,1.1564,1.1574,1.155,1.1549,1.1555,1.1569,1.1538,1.1538,1.1573,1.1575,1.1576,1.1614,0,0,0,0,0,0,1.1631,1.1629,1.1636,1.1619,1.1616,1.1623,1.1595,1.1591,1.1588,1.1585,1.1569,1.1565,1.1549,1.1556,1.1555,1.1569,1.1538,1.1572,1.1574,1.1576,1.1612,1.1617,1.1621,0,0,0,0,0,1.1631,1.1647,1.1637,1.1636,1.1624,1.1624,1.1622,1.1603,1.159,1.1596,1.1584,1.1566,1.1568,1.1557,1.1556,1.1569,1.1571,1.1573,1.1576,1.1609,1.1616,1.1621,0,0,0,0,0,0,1.1666,1.1645,1.1633,1.1643,1.1636,1.1618,1.1625,1.161,1.1606,1.1603,1.158,1.1577,1.1587,1.1579,1.1567,1.1587,1.1567,1.1569,1.1593,1.1598,1.1603,1.1605,1.1537,0,0,0,0,0,1.1675,1.1676,1.1657,1.1669,1.1666,1.1647,1.1645,1.1632,1.1623,1.1619,1.1607,1.1599,1.1598,1.1598,1.1595,1.161,1.1607,1.1619,1.1624,1.1628,1.163,1.1639,1.1645,1.1585,1.1585,1.1585,0,0,1.1693,1.1682,1.1684,1.1676,1.1668,1.167,1.1644,1.1647,1.1649,1.162,1.1626,1.1617,1.1606,1.1618,1.1622,1.1611,1.1646,1.1631,1.1634,1.1635,1.1642,1.1648,1.1653,1.1586,1.1586,1.1586,0,0,1.1728,1.1719,1.1729,1.1722,1.1711,1.1698,1.1701,1.1685,1.1678,1.1684,1.1663,1.1665,1.1663,1.1657,1.1653,1.1688,1.1672,1.1687,1.1713,1.1722,1.1727,1.1731,1.1744,1.1749,1.169,1.169,1.169,0,1.1753,1.1755,1.1735,1.174,1.1738,1.1712,1.1722,1.1716,1.1705,1.1704,1.1692,1.169,1.1681,1.1692,1.17,1.1698,1.1701,1.1689,1.1727,1.1731,1.1735,1.1747,1.1752,1.1692,1.1692,1.1692,1.1691,0,1.1786,1.1788,1.1797,1.1788,1.1786,1.1794,1.1775,1.1776,1.1763,1.1752,1.1759,1.1747,1.1743,1.1744,1.1731,1.1753,1.1747,1.1732,1.171,1.1743,1.1755,1.1759,1.1695,1.1694,1.1694,1.1693,0,0,1.1842,1.1822,1.1826,1.1822,1.1809,1.1811,1.1817,1.1813,1.1815,1.1808,1.1814,1.1814,1.18,1.1796,1.1782,1.179,1.182,1.1774,1.1773,1.1784,1.1845,1.1857,1.1863,1.1809,1.181,1.181,1.1846,0,1.1875,1.1885,1.1868,1.1883,1.1885,1.1862,1.1867,1.186,1.185,1.1851,1.184,1.1841,1.1822,1.182,1.1826,1.1815,1.1832,1.1812,1.1815,1.1815,1.1819,1.1869,1.1882,1.1916,1.185,1.1851,1.1852,0,1.1914,1.1911,1.1926,1.1913,1.1914,1.1919,1.1915,1.1916,1.1908,1.19,1.1897,1.1881,1.1887,1.1867,1.1876,1.1862,1.1863,1.1857,1.1858,1.1858,1.1836,1.1871,1.1926,1.1932,1.1858,1.1858,1.1857,0,1.1955,1.1954,1.1963,1.196,1.1945,1.195,1.1944,1.1935,1.1935,1.1931,1.1931,1.1928,1.1926,1.1925,1.1909,1.1895,1.192,1.1898,1.1914,1.1915,1.1921,1.1921,1.1978,1.192,1.192,1.192,1.192,0,1.1994,1.2005,1.1981,1.1987,1.1999,1.1979,1.1991,1.1982,1.1975,1.1979,1.1958,1.1962,1.1941,1.1943,1.193,1.194,1.1939,1.1934,1.1931,1.1936,1.1937,1.1937,1.1934,1.1921,1.1921,1.1921,1.192,0,1.2042,1.2026,1.2035,1.2021,1.2017,1.2027,1.2014,1.2019,1.2008,1.2014,1.2014,1.1997,1.1999,1.1983,1.1981,1.1973,1.1989,1.1981,1.1992,1.199,1.2008,1.2007,1.2067,1.2074,1.2011,1.2012,1.2012,0,1.2068,1.2075,1.2062,1.2064,1.2059,1.2062,1.2061,1.2042,1.2043,1.2035,1.2041,1.2042,1.2041,1.2045,1.2032,1.2031,1.2024,1.2045,1.2023,1.2029,1.2025,1.2026,1.2027,1.205,1.205,1.2051,1.2051,0,1.2117,1.2109,1.2109,1.2108,1.2108,1.2105,1.2101,1.2104,1.2084,1.2085,1.2087,1.2087,1.2085,1.2086,1.2083,1.2077,1.2062,1.2058,1.2062,1.2069,1.2075,1.2073,1.2005,1.2057,1.2057,1.2056,1.2056,1.2056,1.2155,1.2161,1.2153,1.2155,1.215,1.2147,1.2152,1.2142,1.2143,1.2141,1.213,1.2134,1.2127,1.2121,1.2117,1.2121,1.211,1.2116,1.2117,1.2119,1.2123,1.2074,1.212,1.212,1.2119,1.2119,1.2119,0,1.2204,1.2198,1.2199,1.2195,1.2196,1.2182,1.2177,1.2179,1.2183,1.2178,1.2178,1.2181,1.2182,1.217,1.217,1.2175,1.2168,1.2175,1.2175,1.2174,1.2132,1.2129,1.2181,1.2181,1.2181,1.2181,1.2181,1.2181,1.2229,1.224,1.2231,1.224,1.2233,1.2238,1.2237,1.2234,1.223,1.2234,1.2235,1.2228,1.222,1.2219,1.222,1.2217,1.2218,1.2228,1.2223,1.2183,1.2177,1.2171,1.2169,1.2229,1.2229,1.2265,1.2265,1.2266]},{"header":{"parameterUnit":"m.s-1","parameterCategory":1,"la1":30.2991,"la2":30.254,"lo1":-89.0895,"lo2":-89.0444,"dy":0.0017,"dx":0.0017,"nx":28,"ny":28,"refTime":"2025-07-27T09:00:00:Z","depth":0,"parameterNumber":3,"parameterNumberName":"V-component_of_WINDS"},"data":[0,0,0,0,0,0,0,0,0,0,0,0,0,0,0,0,0,0,0,0,0,0,0,0,0,0,0,0,0,0,0,0,0,0,0,0,0,0,0,0,0,0,0,0,0,0,0,0,0,0,0,0,0,0,0,0,0,0,-4.1732,-4.1732,0,-4.1774,-4.1775,-4.1775,-4.1762,-4.1761,-4.176,-4.1759,-4.1799,-4.1801,-4.1803,0,0,0,0,0,0,0,0,0,0,0,0,0,-4.1636,-4.1638,-4.1732,-4.1732,-4.1733,-4.1774,-4.1775,-4.1775,-4.1762,-4.1761,-4.176,-4.1759,-4.1798,-4.1801,-4.1803,0,0,0,0,0,0,0,0,0,0,0,0,0,-4.1678,-4.1638,-4.1731,-4.1731,-4.1732,-4.1774,-4.1775,-4.1776,-4.1762,-4.1761,-4.176,-4.1758,-4.1798,-4.18,-4.1803,-4.1847,0,0,-4.1812,-4.1813,0,0,0,0,0,0,0,0,-4.1676,-4.1681,-4.1731,-4.1731,-4.1732,-4.1762,-4.1756,-4.18,-4.1763,-4.175,-4.1759,-4.1758,-4.1787,-4.1791,-4.1802,-4.1849,-4.1851,-4.1812,-4.1814,-4.1815,-4.1816,0,0,0,0,0,0,0,-4.1673,-4.1679,-4.1748,-4.1731,-4.1732,-4.1728,-4.1733,-4.1764,-4.1776,-4.1751,-4.1751,-4.1756,-4.1787,-4.1799,-4.1803,-4.1852,-4.1812,-4.1814,-4.1816,-4.1817,-4.1941,-4.1942,0,0,0,0,0,0,-4.167,-4.1677,-4.1747,-4.175,-4.17,-4.1731,-4.1736,-4.1753,-4.1775,-4.1778,-4.1757,-4.1755,-4.1795,-4.1799,-4.1804,-4.186,-4.1815,-4.1818,-4.1819,-4.1939,-4.1941,-4.1943,0,0,0,0,0,0,-4.1668,-4.1676,-4.1745,-4.1713,-4.1722,-4.1734,-4.1754,-4.1755,-4.1767,-4.178,-4.1781,-4.1767,-4.1794,-4.18,-4.1838,-4.1861,-4.1819,-4.1821,-4.1937,-4.194,-4.1942,-4.197,0,0,0,0,0,0,-4.1665,-4.1676,-4.1693,-4.1714,-4.1724,-4.1779,-4.1755,-4.1757,-4.1772,-4.177,-4.179,-4.1792,-4.1793,-4.1834,-4.1841,-4.1864,-4.1824,-4.1935,-4.1938,-4.1941,-4.1967,-4.1973,-4.1978,0,0,0,0,0,-4.1662,-4.1697,-4.1694,-4.1702,-4.1746,-4.178,-4.1786,-4.1788,-4.1774,-4.1791,-4.18,-4.1791,-4.1857,-4.1838,-4.1845,-4.187,-4.1934,-4.1938,-4.1941,-4.1965,-4.1972,-4.1978,0,0,0,0,0,0,-4.1676,-4.17,-4.1696,-4.174,-4.1759,-4.1778,-4.18,-4.1796,-4.1817,-4.1814,-4.1815,-4.182,-4.186,-4.1868,-4.1846,-4.1915,-4.1893,-4.1898,-4.1908,-4.1915,-4.1921,-4.1918,-4.1826,0,0,0,0,0,-4.1685,-4.1712,-4.1731,-4.1767,-4.1777,-4.1787,-4.1802,-4.1803,-4.1822,-4.1829,-4.1841,-4.1858,-4.1884,-4.19,-4.1923,-4.1968,-4.1973,-4.1989,-4.1994,-4.1999,-4.2004,-4.2031,-4.2039,-4.1955,-4.1954,-4.1954,0,0,-4.1702,-4.1719,-4.1735,-4.1771,-4.1786,-4.1814,-4.1794,-4.1823,-4.1845,-4.1833,-4.1871,-4.188,-4.19,-4.1942,-4.1962,-4.1951,-4.2028,-4.2003,-4.2007,-4.2009,-4.2035,-4.2043,-4.205,-4.1957,-4.1956,-4.1956,0,0,-4.1749,-4.1763,-4.1797,-4.1813,-4.1836,-4.1843,-4.1851,-4.1873,-4.1879,-4.1917,-4.191,-4.1935,-4.1977,-4.1992,-4.2006,-4.2062,-4.2054,-4.2069,-4.2098,-4.2124,-4.2131,-4.2137,-4.2159,-4.2166,-4.2073,-4.2073,-4.2073,0,-4.1767,-4.181,-4.1814,-4.1846,-4.1863,-4.1856,-4.1891,-4.1905,-4.1934,-4.1946,-4.1934,-4.1989,-4.2002,-4.2049,-4.2063,-4.2073,-4.2083,-4.2067,-4.213,-4.2136,-4.2141,-4.2162,-4.217,-4.2075,-4.2075,-4.2075,-4.2075,0,-4.1833,-4.1863,-4.1887,-4.1919,-4.1938,-4.197,-4.198,-4.1998,-4.1998,-4.2006,-4.2046,-4.2061,-4.2089,-4.21,-4.2099,-4.2148,-4.2141,-4.2129,-4.2107,-4.2151,-4.2171,-4.2179,-4.2078,-4.2077,-4.2077,-4.2076,0,0,-4.1888,-4.1924,-4.1933,-4.1949,-4.1975,-4.1998,-4.2031,-4.2061,-4.2078,-4.2098,-4.2127,-4.2164,-4.2155,-4.217,-4.217,-4.2193,-4.224,-4.2179,-4.218,-4.2192,-4.2298,-4.2308,-4.2317,-4.2235,-4.2237,-4.2238,-4.2297,0,-4.1938,-4.1999,-4.2005,-4.2058,-4.2088,-4.2083,-4.2112,-4.2132,-4.2141,-4.2166,-4.2175,-4.2203,-4.2187,-4.2197,-4.2219,-4.2229,-4.2261,-4.2225,-4.2262,-4.2263,-4.2259,-4.2327,-4.2337,-4.2391,-4.2304,-4.2305,-4.2306,0,-4.2005,-4.2031,-4.2089,-4.2115,-4.2127,-4.2153,-4.2182,-4.2206,-4.2229,-4.2234,-4.2253,-4.2251,-4.2285,-4.2262,-4.231,-4.2285,-4.23,-4.2308,-4.231,-4.2315,-4.2288,-4.2335,-4.2409,-4.2418,-4.2318,-4.2317,-4.2316,0,-4.2042,-4.2091,-4.2133,-4.2146,-4.2177,-4.2196,-4.2209,-4.223,-4.2249,-4.2273,-4.2286,-4.2313,-4.2329,-4.235,-4.2356,-4.2338,-4.2405,-4.2381,-4.241,-4.241,-4.2425,-4.2424,-4.2504,-4.2432,-4.2432,-4.2432,-4.2432,0,-4.2099,-4.2134,-4.2151,-4.2177,-4.2217,-4.2224,-4.2263,-4.2275,-4.2295,-4.2323,-4.2319,-4.2345,-4.2351,-4.2379,-4.2383,-4.2423,-4.243,-4.2435,-4.2436,-4.2436,-4.2436,-4.2447,-4.2444,-4.2434,-4.2434,-4.2433,-4.2433,0,-4.2147,-4.216,-4.2205,-4.2232,-4.2239,-4.2268,-4.2291,-4.2315,-4.2325,-4.2361,-4.2369,-4.2384,-4.2416,-4.2424,-4.2461,-4.2465,-4.2513,-4.2509,-4.2506,-4.2507,-4.2536,-4.2534,-4.2628,-4.2641,-4.2559,-4.256,-4.256,0,-4.2183,-4.2211,-4.2242,-4.2262,-4.2277,-4.2308,-4.2328,-4.2335,-4.2356,-4.2386,-4.2407,-4.244,-4.2466,-4.2518,-4.2531,-4.256,-4.2559,-4.2589,-4.2563,-4.2563,-4.2561,-4.2561,-4.2564,-4.2595,-4.2595,-4.2596,-4.2597,0,-4.2246,-4.2252,-4.2281,-4.2314,-4.2339,-4.2364,-4.2388,-4.2404,-4.2416,-4.2439,-4.2474,-4.2494,-4.2535,-4.2567,-4.2598,-4.261,-4.2606,-4.2605,-4.2614,-4.2615,-4.2613,-4.2617,-4.2522,-4.2603,-4.2602,-4.2602,-4.2602,-4.2601,-4.229,-4.2317,-4.2344,-4.2377,-4.2397,-4.2421,-4.2447,-4.2461,-4.2491,-4.2526,-4.2528,-4.2566,-4.259,-4.2631,-4.2645,-4.2675,-4.2665,-4.2677,-4.2681,-4.2684,-4.2688,-4.2608,-4.268,-4.268,-4.2679,-4.2679,-4.2679,0,-4.2355,-4.2373,-4.2405,-4.2441,-4.2468,-4.2464,-4.2491,-4.2514,-4.2548,-4.2571,-4.2599,-4.2639,-4.2672,-4.2689,-4.2721,-4.2741,-4.274,-4.275,-4.2749,-4.2752,-4.2693,-4.2684,-4.275,-4.275,-4.275,-4.275,-4.275,-4.275,-4.2392,-4.2437,-4.2447,-4.2502,-4.2519,-4.2558,-4.2575,-4.2597,-4.2616,-4.2663,-4.2691,-4.2702,-4.2724,-4.2758,-4.2788,-4.2792,-4.2804,-4.2815,-4.2819,-4.2763,-4.2756,-4.2749,-4.274,-4.2818,-4.2818,-4.2876,-4.2876,-4.2876]}]]